Location: Conjunto Santa Maria
(19.9513°S, 43.9599°W)
Time: 13:42:50
(UTC+00:00)

Aureole 3 - Pass Details

Date: 21 January 2021
Orbit: 381 x 1231 km, 82.5° (Epoch: 03 March)

Event Time Altitude Azimuth Distance (km) Brightness Sun altitude
Rises 22:05:56 0° 357° (N) 2,313 6.3 -6.2°
Reaches altitude 10° 22:07:47 10° 357° (N) 1,513 5.4 -6.6°
Maximum altitude 22:11:01 86° 86° (E) 483 3.0 -7.3°
Drops below altitude 10° 22:14:58 10° 174° (S) 1,846 6.3 -8.2°
Sets 22:17:25 0° 174° (S) 2,888 7.3 -8.7°
